1494216000.52,15585,14.69,72668.8,-4.55,-28.37,-23.89,0,*56
1494216001.74,15586,14.69,72674.0,-4.55,-28.31,-23.89,0,*53
1494216002.99,15587,14.69,72672.0,-4.55,-28.31,-23.85,0,*5E
1494216004.2,15588,14.75,72676.0,-4.55,-28.31,-23.89,0,*5D
1494216005.46,15589,14.75,72672.5,-4.55,-28.31,-23.85,0,*50
1494216006.7,15590,14.75,72678.0,-4.55,-28.31,-23.85,0,*58
1494216007.92,15591,14.75,72674.8,-4.55,-28.31,-23.89,0,*55
1494216009.14,15592,14.75,72674.0,-4.55,-28.31,-23.89,0,*56
1494216010.34,15593,14.75,72672.5,-4.57,-28.31,-23.89,0,*55
1494216011.56,15594,14.75,72672.0,-4.57,-28.21,-23.89,0,*53
1494216012.76,15595,14.75,72674.5,-4.57,-28.31,-23.89,0,*53
1494216013.96,15596,14.75,72676.3,-4.57,-28.37,-24.05,0,*55
1494216015.19,15597,14.75,72674.0,-4.59,-28.37,-23.89,0,*59
1494216016.41,15598,14.75,72674.8,-4.57,-28.31,-23.85,0,*52
1494216017.66,15599,14.75,72674.5,-4.55,-28.31,-23.85,0,*51
1494216018.89,15600,14.75,72672.0,-4.57,-28.31,-23.85,0,*50
1494216020.15,15601,14.75,72678.5,-4.59,-28.37,-23.85,0,*59
1494216021.34,15602,14.75,72674.5,-4.57,-28.31,-23.79,0,*51
1494216022.57,15603,14.69,72670.3,-4.57,-28.31,-23.85,0,*53
1494216023.8,15604,14.75,72668.8,-4.57,-28.37,-23.85,0,*52
1494216025.02,15605,14.69,72670.8,-4.57,-28.43,-23.89,0,*5C
1494216026.24,15606,14.75,72674.5,-4.55,-28.31,-23.79,0,*57
1494216027.47,15607,14.75,72674.0,-4.57,-28.31,-23.85,0,*57
1494216028.7,15608,14.75,72670.8,-4.57,-28.21,-23.79,0,*5A
1494216029.9,15609,14.75,72666.3,-4.57,-28.31,-23.79,0,*5A
1494216031.15,15610,14.69,72660.0,-4.59,-28.25,-23.79,0,*59
1494216032.4,15611,14.69,72664.0,-4.59,-28.25,-23.89,0,*57
1494216033.66,15612,14.69,72664.0,-4.57,-28.21,-23.85,0,*52
1494216034.91,15613,14.69,72662.5,-4.57,-28.09,-23.85,0,*59
1494216036.16,15614,14.75,72662.8,-4.57,-27.83,-23.85,0,*53
1494216037.41,15615,14.69,72668.0,-4.59,-27.51,-23.85,0,*53
1494216038.63,15616,14.69,72664.0,-4.57,-27.19,-23.79,0,*51
1494216039.83,15617,14.75,72664.3,-4.57,-27.03,-23.79,0,*5B
1494216041.06,15618,14.75,72672.5,-4.57,-26.97,-23.79,0,*58
1494216042.29,15619,14.75,72668.0,-4.57,-26.81,-23.79,0,*5E
1494216043.54,15620,14.75,72672.0,-4.59,-26.81,-23.75,0,*56
1494216044.77,15621,14.69,72666.8,-4.57,-26.65,-23.69,0,*5E
1494216045.97,15622,14.75,72670.8,-4.57,-26.65,-23.79,0,*5C
1494216047.22,15623,14.75,72668.0,-4.59,-26.71,-23.75,0,*5A
1494216048.47,15624,14.69,72670.3,-4.57,-26.77,-23.69,0,*58
1494216049.72,15625,14.75,72670.0,-4.59,-26.55,-23.75,0,*5A
1494216050.95,15626,14.75,72666.3,-4.57,-26.77,-23.79,0,*5B
1494216052.18,15627,14.75,72668.0,-4.57,-26.81,-23.79,0,*53
1494216053.43,15628,14.75,72670.8,-4.57,-26.81,-23.69,0,*5D
1494216054.68,15629,14.69,72664.0,-4.57,-26.93,-23.69,0,*5F
1494216055.88,15630,14.75,72674.3,-4.57,-27.03,-23.79,0,*5E
1494216057.08,15631,14.75,72676.3,-4.57,-27.13,-23.79,0,*5E
1494216058.35,15632,14.75,72678.5,-4.59,-27.23,-23.85,0,*53
1494216059.6,15633,14.75,72672.3,-4.55,-27.13,-23.69,0,*5F
1494216060.85,15634,14.69,72670.0,-4.59,-27.23,-23.75,0,*5A
1494216062.1,15635,14.75,72676.0,-4.59,-27.23,-23.75,0,*5B
1494216063.33,15636,14.75,72680.5,-4.59,-27.19,-22.41,0,*57
1494216064.56,15637,14.75,72678.5,-4.59,-25.65,-19.37,0,*56
1494216065.78,15638,14.75,72682.0,-4.57,-23.19,-18.49,0,*52
1494216067.03,15639,14.75,72680.8,-4.57,-21.33,-18.55,0,*54
1494216068.24,15640,14.75,72684.8,-4.57,-20.39,-19.91,0,*58
1494216069.46,15641,14.75,72682.5,-4.57,-20.49,-17.31,0,*5A
1494216070.66,15642,14.69,72682.0,-4.57,-18.69,-14.23,0,*50
1494216071.86,15643,14.75,72680.0,-4.57,-16.97,-13.11,0,*58
1494216073.12,15644,14.69,72678.5,-4.57,-14.83,-12.65,0,*5A
1494216074.39,15645,14.75,72680.0,-4.55,-13.79,-12.83,0,*53
1494216075.65,15646,14.75,72682.8,-4.55,-14.15,-13.37,0,*53
1494216076.87,15647,14.75,72686.8,-4.51,-14.61,-13.07,0,*56
1494216078.12,15648,14.75,72684.8,-4.51,-14.65,-13.37,0,*5E
1494216079.36,15649,14.75,72686.8,-4.51,-14.93,-13.23,0,*53
1494216080.63,15650,14.75,72686.5,-4.51,-14.47,-16.41,0,*53
1494216081.85,15651,14.75,72682.5,-4.51,-16.93,-16.97,0,*52
1494216083.06,15652,14.75,72684.0,-4.49,-19.13,-20.43,0,*53
1494216084.32,15653,14.69,72676.8,-4.49,-21.53,-20.99,0,*5A
1494216085.58,15654,14.75,72678.0,-4.47,-22.57,-21.03,0,*56
1494216086.81,15655,14.75,72674.0,-4.49,-22.21,-19.37,0,*54
1494216088.06,15656,14.75,72672.3,-4.49,-19.41,-16.27,0,*57
1494216089.29,15657,14.75,72674.3,-4.49,-16.09,-14.19,0,*5A
1494216090.49,15658,14.75,72674.5,-4.49,-13.47,-13.51,0,*51
1494216091.69,15659,14.75,72668.0,-4.49,-12.39,-14.19,0,*53
1494216092.91,15660,14.75,72670.0,-4.49,-12.35,-15.11,0,*5C
1494216094.19,15661,14.75,72660.0,-4.47,-12.57,-17.55,0,*55
1494216095.44,15662,14.75,72660.8,-4.47,-12.47,-15.57,0,*57
1494216096.66,15663,14.75,72664.5,-4.47,-12.97,-18.41,0,*51
1494216097.92,15664,14.75,72664.8,-4.47,-13.11,-18.31,0,*5E
1494216099.14,15665,14.75,72660.0,-4.43,-13.69,-18.65,0,*55
1494216100.35,15666,14.75,72662.3,-4.45,-14.33,-18.73,0,*5F
1494216101.56,15667,14.75,72664.8,-4.45,-15.07,-17.87,0,*5C
1494216102.81,15668,14.75,72666.3,-4.43,-14.37,-14.51,0,*5F
1494216104.07,15669,14.75,72662.3,-4.43,-13.29,-13.51,0,*51
1494216105.31,15670,14.69,72662.5,-4.43,-12.57,-13.69,0,*5A
1494216106.54,15671,14.75,72666.8,-4.43,-12.29,-13.11,0,*5D
1494216107.78,15672,14.75,72664.8,-4.41,-11.93,-11.41,0,*59
1494216109.03,15673,14.69,72662.5,-4.41,-10.67,-9.57,0,*6C
1494216110.25,15674,14.75,72664.8,-4.41,-9.19,-9.61,0,*5F
1494216111.47,15675,14.75,72668.0,-4.41,-9.19,-12.15,0,*67
1494216112.73,15676,14.75,72668.8,-4.39,-11.55,-15.11,0,*59
1494216113.95,15677,14.75,72668.0,-4.41,-15.25,-17.17,0,*50
1494216115.21,15678,14.75,72662.8,-4.39,-17.87,-19.57,0,*50
1494216116.46,15679,14.69,72660.5,-4.39,-21.09,-18.31,0,*53
1494216117.69,15680,14.75,72666.8,-4.39,-18.69,-14.37,0,*53
1494216118.92,15681,14.75,72668.3,-4.39,-14.61,-13.19,0,*5D
1494216120.19,15682,14.75,72668.5,-4.39,-11.93,-13.37,0,*5A
1494216121.45,15683,14.75,72668.8,-4.37,-11.37,-14.83,0,*53
1494216122.7,15684,14.75,72668.0,-4.35,-13.29,-16.45,0,*53
1494216123.99,15685,14.75,72668.8,-4.35,-14.83,-16.23,0,*55
1494216125.25,15686,14.75,72670.3,-4.37,-16.23,-17.97,0,*52
1494216126.48,15687,14.75,72668.3,-4.35,-20.29,-20.93,0,*5E
1494216127.72,15688,14.75,72662.5,-4.35,-23.13,-22.03,0,*50
1494216128.96,15689,14.75,72666.5,-4.35,-22.41,-20.39,0,*5C
1494216130.22,15690,14.75,72664.3,-4.35,-19.03,-19.61,0,*5D
1494216131.49,15691,14.75,72670.5,-4.35,-18.59,-20.39,0,*55
1494216132.73,15692,14.75,72670.5,-4.33,-20.19,-20.39,0,*5F
1494216133.97,15693,14.75,72666.8,-4.33,-21.97,-21.13,0,*50
1494216135.23,15694,14.75,72668.3,-4.33,-23.23,-21.57,0,*5A
1494216136.45,15695,14.75,72664.3,-4.33,-23.59,-20.73,0,*51
1494216137.67,15696,14.75,72668.3,-4.29,-24.47,-22.41,0,*52
1494216138.91,15697,14.75,72662.8,-4.33,-25.13,-22.77,0,*5D
1494216140.17,15698,14.75,72662.8,-4.33,-23.99,-21.33,0,*55
1494216141.4,15699,14.75,72666.8,-4.33,-23.69,-22.11,0,*58
1494216142.65,15700,14.75,72666.3,-4.33,-25.71,-23.09,0,*5E
1494216143.9,15701,14.75,72656.5,-4.33,-26.65,-23.23,0,*51
1494216145.14,15702,14.75,72658.8,-4.33,-26.87,-23.23,0,*5E
1494216146.38,15703,14.75,72658.8,-4.33,-26.87,-23.23,0,*5F
1494216147.65,15704,14.75,72664.8,-4.33,-26.97,-23.03,0,*5B
1494216148.87,15705,14.75,72664.3,-4.33,-27.03,-22.63,0,*51
1494216150.11,15706,14.75,72660.8,-4.35,-27.07,-23.09,0,*5D
1494216151.34,15707,14.75,72658.5,-4.35,-26.87,-22.11,0,*5D
1494216152.64,15708,14.75,72662.0,-4.35,-25.55,-21.23,0,*5C
1494216153.9,15709,14.75,72662.0,-4.35,-23.95,-21.73,0,*52
1494216155.17,15710,14.75,72664.8,-4.35,-24.25,-22.57,0,*53
1494216156.44,15711,14.75,72666.0,-4.35,-24.87,-23.09,0,*50
1494216157.71,15712,14.75,72662.8,-4.35,-26.03,-22.77,0,*55
1494216158.91,15713,14.75,72662.5,-4.37,-25.65,-23.09,0,*5D
1494216160.15,15714,14.75,72662.5,-4.37,-26.33,-23.09,0,*5A
1494216161.35,15715,14.75,72660.5,-4.37,-26.39,-23.13,0,*5A
1494216162.55,15716,14.75,72658.5,-4.37,-27.07,-23.39,0,*5D
1494216163.76,15717,14.75,72660.0,-4.37,-27.51,-23.43,0,*52
1494216164.96,15718,14.75,72660.0,-4.37,-27.67,-23.43,0,*58
1494216166.16,15719,14.75,72662.0,-4.37,-27.89,-23.59,0,*52
1494216167.39,15720,14.75,72662.8,-4.37,-28.05,-23.59,0,*53
1494216168.61,15721,14.75,72664.8,-4.37,-27.93,-23.53,0,*58
1494216169.83,15722,14.75,72666.0,-4.37,-27.93,-23.53,0,*5B
1494216171.1,15723,14.75,72666.8,-4.39,-28.09,-23.29,0,*55
1494216172.33,15724,14.75,72662.5,-4.39,-27.13,-22.63,0,*59
1494216173.61,15725,14.75,72664.3,-4.39,-26.55,-22.47,0,*5D
1494216174.86,15726,14.75,72666.3,-4.39,-26.61,-23.19,0,*53
1494216176.11,15727,14.75,72662.8,-4.39,-26.39,-22.47,0,*55
1494216177.37,15728,14.75,72668.3,-4.39,-25.71,-22.03,0,*55
1494216178.59,15729,14.75,72666.0,-4.39,-25.91,-22.87,0,*56
1494216179.84,15730,14.75,72666.0,-4.39,-26.07,-22.47,0,*5E
1494216181.05,15731,14.75,72670.8,-4.41,-26.45,-22.87,0,*5A
1494216182.3,15732,14.75,72664.8,-4.41,-26.93,-23.49,0,*51
1494216183.56,15733,14.75,72666.0,-4.41,-27.45,-23.49,0,*5A
1494216184.8,15734,14.75,72666.0,-4.41,-27.61,-23.43,0,*51
1494216186.03,15735,14.75,72660.3,-4.41,-27.77,-23.65,0,*53
1494216187.23,15736,14.75,72660.3,-4.41,-27.55,-23.43,0,*54
1494216188.46,15737,14.75,72670.0,-4.41,-26.29,-23.13,0,*5A
1494216189.72,15738,14.69,72668.3,-4.41,-26.13,-23.33,0,*5E
1494216190.97,15739,14.75,72664.0,-4.41,-26.13,-23.19,0,*57
1494216192.22,15740,14.75,72660.3,-4.39,-26.13,-22.53,0,*59
1494216193.46,15741,14.75,72662.3,-4.41,-26.13,-23.43,0,*57
1494216194.71,15742,14.75,72664.0,-4.41,-26.77,-23.49,0,*5C
1494216195.94,15743,14.75,72664.5,-4.41,-26.39,-23.29,0,*51
1494216197.15,15744,14.75,72664.8,-4.41,-26.45,-23.43,0,*51
1494216198.4,15745,14.75,72664.0,-4.43,-26.49,-23.49,0,*54
1494216199.66,15746,14.75,72666.3,-4.43,-26.65,-23.49,0,*59
1494216200.92,15747,14.75,72664.5,-4.41,-26.97,-23.49,0,*57
1494216202.16,15748,14.75,72666.5,-4.41,-26.97,-22.97,0,*5A
1494216203.42,15749,14.75,72666.8,-4.41,-26.81,-22.31,0,*50
1494216204.69,15750,14.75,72664.5,-4.43,-24.51,-20.49,0,*58
1494216205.96,15751,14.75,72666.5,-4.43,-23.23,-21.03,0,*54
1494216207.22,15752,14.75,72664.8,-4.43,-23.33,-20.39,0,*5E
1494216208.51,15753,14.75,72668.5,-4.43,-21.27,-17.07,0,*51
1494216209.74,15754,14.75,72670.8,-4.43,-18.69,-16.93,0,*5A
1494216210.94,15755,14.75,72672.0,-4.41,-19.37,-18.17,0,*51
1494216212.15,15756,14.75,72674.5,-4.41,-21.43,-20.59,0,*5B
1494216213.36,15757,14.75,72674.3,-4.41,-20.43,-20.05,0,*52
1494216214.59,15758,14.75,72670.0,-4.41,-21.27,-20.93,0,*51
1494216215.85,15759,14.75,72664.0,-4.39,-21.67,-20.69,0,*5E
1494216217.05,15760,14.75,72670.0,-4.41,-22.97,-21.77,0,*59
1494216218.32,15761,14.75,72672.3,-4.39,-24.47,-22.47,0,*5C
1494216219.57,15762,14.75,72670.3,-4.39,-24.77,-22.31,0,*5D
1494216220.81,15763,14.75,72672.3,-4.39,-25.45,-23.13,0,*5D
1494216222.02,15764,14.75,72672.0,-4.41,-26.07,-23.13,0,*50
1494216223.25,15765,14.75,72674.5,-4.41,-26.45,-23.33,0,*55
1494216224.5,15766,14.75,72676.5,-4.41,-26.77,-23.29,0,*5C
1494216225.78,15767,14.75,72676.8,-4.39,-26.97,-23.33,0,*57
1494216227.01,15768,14.75,72674.0,-4.39,-27.07,-23.43,0,*57
1494216228.27,15769,14.75,72674.5,-4.41,-27.23,-23.49,0,*55
1494216229.51,15770,14.75,72676.8,-4.39,-27.13,-23.29,0,*57
1494216230.76,15771,14.75,72676.8,-4.39,-27.29,-23.49,0,*59
1494216231.99,15772,14.75,72676.0,-4.41,-27.55,-23.49,0,*5E
1494216233.22,15773,14.75,72672.5,-4.41,-27.71,-23.49,0,*59
1494216234.47,15774,14.75,72674.5,-4.39,-27.89,-23.49,0,*56
1494216235.67,15775,14.75,72676.5,-4.41,-27.93,-23.59,0,*52
1494216236.9,15776,14.75,72676.3,-4.41,-27.89,-23.49,0,*5B
1494216238.13,15777,14.75,72682.0,-4.41,-27.77,-23.49,0,*5B
1494216239.33,15778,14.75,72678.3,-4.41,-27.13,-22.53,0,*5C
1494216240.53,15779,14.75,72680.8,-4.41,-26.39,-22.07,0,*55
1494216241.76,15780,14.75,72676.8,-4.41,-25.23,-20.83,0,*55
1494216242.97,15781,14.75,72676.3,-4.41,-24.31,-21.43,0,*5B
1494216244.23,15782,14.75,72678.8,-4.41,-24.11,-21.23,0,*5C
1494216245.49,15783,14.75,72680.0,-4.41,-23.99,-21.67,0,*5A
1494216246.75,15784,14.75,72676.5,-4.41,-23.19,-19.85,0,*52
1494216247.95,15785,14.75,72672.5,-4.41,-21.39,-20.05,0,*51
1494216249.18,15786,14.75,72676.3,-4.41,-23.29,-21.93,0,*5F
1494216250.46,15787,14.75,72674.8,-4.39,-24.41,-22.21,0,*52
1494216251.68,15788,14.75,72676.0,-4.39,-24.77,-22.07,0,*5C
1494216252.91,15789,14.75,72676.0,-4.41,-25.39,-22.73,0,*5A
1494216254.11,15790,14.75,72678.0,-4.41,-26.23,-23.13,0,*5D
1494216255.37,15791,14.75,72676.5,-4.41,-26.77,-23.19,0,*57
1494216256.6,15792,14.75,72674.0,-4.41,-26.93,-22.83,0,*5C
1494216257.83,15793,14.75,72676.3,-4.41,-23.95,-21.13,0,*54
1494216259.06,15794,14.75,72680.0,-4.41,-22.31,-21.93,0,*54
1494216260.31,15795,14.75,72682.5,-4.41,-24.11,-22.73,0,*5C
1494216261.57,15796,14.75,72678.5,-4.39,-24.77,-22.47,0,*57
1494216262.82,15797,14.75,72678.0,-4.39,-24.15,-22.03,0,*52
1494216264.07,15798,14.75,72682.8,-4.39,-25.29,-22.97,0,*5E
1494216265.29,15799,14.75,72682.0,-4.41,-26.45,-23.29,0,*5D
1494216266.55,15800,14.75,72682.0,-4.41,-26.97,-23.29,0,*5D
1494216267.78,15801,14.75,72676.8,-4.41,-26.45,-21.23,0,*5B
1494216269.04,15802,14.75,72680.3,-4.41,-23.33,-18.31,0,*55
1494216270.27,15803,14.75,72678.8,-4.41,-20.63,-17.59,0,*53
1494216271.51,15804,14.75,72680.0,-4.41,-19.13,-18.35,0,*5C
1494216272.78,15805,14.75,72682.5,-4.41,-19.27,-20.19,0,*5F
1494216274.01,15806,14.75,72674.8,-4.39,-20.59,-20.05,0,*5D
1494216275.21,15807,14.75,72678.3,-4.41,-20.29,-15.53,0,*51
1494216276.46,15808,14.75,72678.5,-4.39,-16.23,-10.93,0,*57
1494216277.73,15809,14.75,72678.3,-4.39,-12.15,-9.61,0,*62
1494216278.97,15810,14.75,72674.5,-4.39,-10.45,-9.57,0,*68
1494216280.2,15811,14.75,72670.0,-4.39,-9.61,-9.27,0,*50
1494216281.45,15812,14.75,72670.0,-4.39,-9.15,-8.37,0,*50
1494216282.72,15813,14.75,72672.5,-4.35,-8.03,-7.65,0,*53
1494216283.95,15814,14.75,72678.3,-4.35,-7.53,-8.89,0,*53
1494216285.21,15815,14.75,72674.5,-4.35,-8.21,-12.83,0,*69
1494216286.47,15816,14.75,72674.8,-4.35,-9.01,-14.75,0,*66
1494216287.73,15817,14.75,72674.3,-4.35,-10.31,-18.93,0,*58
1494216288.97,15818,14.75,72672.0,-4.33,-13.65,-21.67,0,*52
1494216290.2,15819,14.75,72676.8,-4.33,-17.07,-22.41,0,*54
1494216291.45,15820,14.75,72678.0,-4.33,-19.61,-22.63,0,*50
1494216292.71,15821,14.75,72672.8,-4.29,-21.33,-22.73,0,*57
1494216293.96,15822,14.75,72676.0,-4.29,-22.11,-22.77,0,*53
1494216295.22,15823,14.75,72676.3,-4.33,-22.73,-22.77,0,*5D
1494216296.46,15824,14.75,72672.5,-4.33,-23.49,-22.87,0,*5D
1494216297.67,15825,14.75,72686.5,-4.33,-23.89,-22.41,0,*5A
1494216298.91,15826,14.75,72678.8,-4.29,-23.59,-21.83,0,*52
1494216300.12,15827,14.75,72674.0,-4.33,-23.39,-21.63,0,*50
1494216301.38,15828,14.75,72676.0,-4.33,-23.03,-21.03,0,*50
1494216302.65,15829,14.75,72678.3,-4.29,-21.97,-19.81,0,*54
1494216303.85,15830,14.75,72674.3,-4.29,-20.69,-18.83,0,*5F
1494216305.1,15831,14.75,72672.8,-4.33,-20.19,-20.59,0,*5E
1494216306.36,15832,14.75,72668.3,-4.33,-21.33,-20.35,0,*5E
1494216307.6,15833,14.75,72666.5,-4.29,-21.43,-19.65,0,*5C
1494216308.8,15834,14.75,72670.0,-4.33,-20.09,-18.49,0,*50
1494216310.05,15835,14.75,72670.8,-4.33,-19.13,-19.31,0,*5E
1494216311.29,15836,14.75,72676.3,-4.29,-19.91,-21.97,0,*5B
1494216312.55,15837,14.75,72676.5,-4.33,-21.83,-22.73,0,*50
1494216313.77,15838,14.75,72674.8,-4.29,-22.37,-22.63,0,*59
1494216315.01,15839,14.69,72664.3,-4.33,-22.73,-22.87,0,*59
1494216316.28,15840,14.75,72672.0,-4.29,-23.33,-23.03,0,*54
1494216317.52,15841,14.75,72670.0,-4.33,-23.85,-22.93,0,*5B
1494216318.78,15842,14.75,72672.0,-4.27,-24.11,-22.83,0,*56
1494216320.0,15843,14.75,72678.3,-4.29,-24.35,-22.37,0,*50
1494216321.27,15844,14.75,72676.0,-4.29,-24.15,-20.35,0,*55
1494216322.51,15845,14.75,72676.8,-4.33,-23.19,-22.63,0,*55
1494216323.76,15846,14.75,72676.8,-4.29,-25.03,-23.09,0,*5D
1494216325.0,15847,14.75,72678.0,-4.33,-25.97,-23.09,0,*5A
1494216326.26,15848,14.75,72678.0,-4.29,-25.03,-22.21,0,*58
1494216327.51,15849,14.75,72674.3,-4.33,-24.47,-22.21,0,*53
1494216328.78,15850,14.75,72682.0,-4.29,-25.03,-23.19,0,*5B
1494216330.04,15851,14.75,72674.5,-4.33,-25.97,-23.33,0,*54
1494216331.28,15852,14.75,72672.0,-4.33,-25.97,-23.39,0,*5D
1494216332.52,15853,14.75,72676.0,-4.29,-26.29,-23.39,0,*51
1494216333.76,15854,14.75,72680.3,-4.33,-26.49,-23.33,0,*51
1494216335.02,15855,14.75,72682.0,-4.33,-26.71,-23.33,0,*5B
1494216336.26,15856,14.75,72678.8,-4.33,-26.87,-23.33,0,*51
1494216337.51,15857,14.75,72676.5,-4.33,-27.19,-23.33,0,*56
1494216338.74,15858,14.75,72676.8,-4.33,-27.35,-23.39,0,*5D
1494216339.95,15859,14.75,72672.0,-4.33,-27.51,-23.39,0,*5E
1494216341.2,15860,14.75,72672.8,-4.33,-27.61,-23.39,0,*57
1494216342.44,15861,14.75,72670.0,-4.33,-27.61,-23.39,0,*56
1494216343.69,15862,14.75,72674.5,-4.33,-27.61,-23.39,0,*55
1494216344.89,15863,14.75,72678.0,-4.37,-27.71,-23.43,0,*5C
1494216346.14,15864,14.75,72672.8,-4.35,-27.67,-23.43,0,*5E
1494216347.34,15865,14.75,72668.0,-4.37,-27.51,-22.83,0,*55
1494216348.56,15866,14.75,72666.3,-4.37,-26.87,-21.83,0,*5F
1494216349.83,15867,14.75,72664.0,-4.35,-25.65,-20.53,0,*5F
1494216351.11,15868,14.75,72664.8,-4.35,-23.65,-19.65,0,*59
1494216352.37,15869,14.75,72666.5,-4.35,-21.33,-18.45,0,*5A
1494216353.64,15870,14.75,72670.3,-4.35,-18.79,-17.63,0,*5D
1494216354.92,15871,14.75,72664.0,-4.35,-16.17,-17.25,0,*58
1494216356.15,15872,14.75,72668.0,-4.35,-14.89,-18.25,0,*51
1494216357.42,15873,14.75,72664.8,-4.35,-14.83,-17.69,0,*5D
1494216358.67,15874,14.75,72666.8,-4.37,-14.43,-16.23,0,*5B
1494216359.95,15875,14.75,72664.0,-4.35,-13.83,-15.49,0,*5C
1494216361.21,15876,14.75,72668.0,-4.33,-13.37,-14.79,0,*54
1494216362.42,15877,14.75,72664.0,-4.29,-13.65,-13.69,0,*5F
1494216363.7,15878,14.75,72664.3,-4.33,-13.97,-12.71,0,*5E
1494216364.94,15879,14.75,72664.8,-4.33,-13.29,-14.65,0,*59
1494216366.18,15880,14.75,72668.5,-4.29,-12.97,-17.93,0,*5A
1494216367.43,15881,14.75,72670.3,-4.29,-13.79,-20.59,0,*58
1494216368.67,15882,14.75,72664.5,-4.29,-15.71,-21.83,0,*53
1494216369.92,15883,14.75,72664.3,-4.29,-18.59,-22.53,0,*5B
1494216371.18,15884,14.75,72666.3,-4.29,-20.49,-22.73,0,*54
1494216372.43,15885,14.75,72666.3,-4.29,-22.21,-22.93,0,*57
1494216373.69,15886,14.75,72670.5,-4.27,-23.65,-22.97,0,*5F
1494216374.96,15887,14.75,72670.3,-4.25,-24.67,-23.03,0,*55
1494216376.23,15888,14.75,72668.0,-4.29,-25.71,-23.23,0,*52
1494216377.5,15889,14.75,72668.0,-4.29,-26.29,-23.33,0,*5C
1494216378.76,15890,14.75,72668.5,-4.29,-26.71,-23.33,0,*59
1494216379.98,15891,14.75,72666.0,-4.29,-27.03,-23.39,0,*56
1494216381.2,15892,14.75,72666.0,-4.29,-27.29,-23.39,0,*5D
1494216382.47,15893,14.75,72664.0,-4.29,-27.61,-23.49,0,*57
1494216383.71,15894,14.75,72668.0,-4.33,-27.67,-23.49,0,*5D
1494216384.94,15895,14.75,72664.8,-4.33,-27.83,-23.39,0,*51
1494216386.18,15896,14.75,72662.5,-4.29,-27.83,-23.39,0,*59
1494216387.44,15897,14.75,72666.5,-4.33,-27.99,-23.49,0,*5F
1494216388.68,15898,14.75,72662.8,-4.29,-27.89,-23.53,0,*51
1494216389.91,15899,14.75,72666.5,-4.33,-27.89,-23.53,0,*5B
1494216391.18,15900,14.75,72670.5,-4.29,-27.99,-23.53,0,*50
1494216392.41,15901,14.75,72664.8,-4.33,-27.89,-23.49,0,*50
1494216393.67,15902,14.75,72670.3,-4.33,-27.99,-23.53,0,*59
1494216394.91,15903,14.75,72668.0,-4.33,-27.89,-23.49,0,*52
1494216396.12,15904,14.75,72670.5,-4.33,-27.89,-23.59,0,*54
1494216397.39,15905,14.75,72668.0,-4.35,-28.05,-23.43,0,*53
1494216398.65,15906,14.75,72670.0,-4.35,-27.93,-23.65,0,*54
1494216399.91,15907,14.75,72666.5,-4.35,-27.93,-23.53,0,*50
1494216401.17,15908,14.75,72668.8,-4.35,-28.05,-23.59,0,*55
1494216402.46,15909,14.75,72668.8,-4.35,-28.05,-23.65,0,*5B
1494216403.65,15910,14.75,72668.0,-4.37,-27.93,-23.59,0,*5E
1494216404.94,15911,14.75,72666.3,-4.35,-28.05,-23.53,0,*57
1494216406.15,15912,14.75,72664.3,-4.37,-27.93,-23.43,0,*57
1494216407.38,15913,14.75,72664.3,-4.37,-28.05,-23.43,0,*56
1494216408.63,15914,14.75,72666.5,-4.37,-28.05,-23.53,0,*50
1494216409.9,15915,14.75,72666.8,-4.35,-28.05,-23.59,0,*59
1494216411.12,15916,14.75,72664.3,-4.37,-28.05,-23.59,0,*58
1494216412.35,15917,14.75,72668.5,-4.37,-27.93,-23.53,0,*53
1494216413.55,15918,14.75,72664.8,-4.37,-27.93,-23.43,0,*5D
1494216414.8,15919,14.75,72666.8,-4.37,-28.05,-23.53,0,*5D
1494216416.03,15920,14.75,72664.8,-4.37,-27.93,-23.53,0,*57
1494216417.25,15921,14.75,72666.0,-4.37,-27.93,-23.53,0,*56
1494216418.5,15922,14.75,72668.3,-4.37,-28.05,-23.53,0,*55
1494216419.73,15923,14.75,72670.5,-4.37,-27.83,-23.43,0,*54
1494216420.98,15924,14.75,72670.8,-4.39,-27.93,-23.49,0,*56
1494216422.23,15925,14.75,72664.5,-4.39,-27.93,-23.49,0,*57
1494216423.47,15926,14.75,72666.8,-4.39,-27.99,-23.59,0,*5F
1494216424.72,15927,14.75,72666.8,-4.39,-27.99,-23.59,0,*5E
1494216425.94,15928,14.75,72670.3,-4.39,-27.93,-23.59,0,*5B
1494216427.21,15929,14.75,72666.8,-4.39,-27.99,-23.49,0,*51
1494216428.48,15930,14.75,72662.5,-4.39,-27.99,-23.49,0,*59
1494216429.74,15931,14.75,72666.3,-4.41,-27.99,-23.49,0,*57
1494216430.96,15932,14.75,72670.5,-4.39,-27.93,-23.59,0,*50
1494216432.23,15933,14.75,72666.5,-4.39,-27.99,-23.49,0,*5A
1494216433.51,15934,14.75,72662.5,-4.39,-27.99,-23.49,0,*5D
1494216434.73,15935,14.75,72662.5,-4.39,-27.93,-23.59,0,*57
1494216435.95,15936,14.75,72660.8,-4.41,-28.09,-23.59,0,*57
1494216437.16,15937,14.75,72662.0,-4.41,-27.93,-23.59,0,*5A
1494216438.36,15938,14.75,72666.3,-4.41,-27.93,-23.59,0,*55
1494216439.56,15939,14.75,72656.3,-4.41,-27.93,-23.59,0,*54
1494216440.83,15940,14.75,72656.0,-4.39,-27.99,-23.49,0,*5E
1494216442.06,15941,14.75,72662.5,-4.41,-27.93,-23.49,0,*5A
1494216443.27,15942,14.75,72666.0,-4.41,-27.93,-23.59,0,*58
1494216444.49,15943,14.75,72664.0,-4.41,-27.93,-23.49,0,*58
1494216445.73,15944,14.75,72670.3,-4.41,-27.93,-23.49,0,*5F
1494216446.97,15945,14.75,72668.3,-4.43,-27.93,-23.53,0,*57
1494216448.25,15946,14.75,72662.3,-4.43,-27.99,-23.65,0,*5B
1494216449.52,15947,14.75,72664.5,-4.43,-27.99,-23.53,0,*5F
1494216450.79,15948,14.75,72664.8,-4.43,-27.99,-23.65,0,*55
1494216452.02,15949,14.75,72656.8,-4.41,-27.93,-23.49,0,*52
1494216453.25,15950,14.75,72664.3,-4.45,-27.99,-23.59,0,*55
1494216454.46,15951,14.75,72670.0,-4.41,-27.77,-23.43,0,*5B
1494216455.71,15952,14.75,72660.3,-4.43,-27.77,-23.49,0,*50
1494216456.95,15953,14.75,72660.3,-4.43,-27.83,-23.39,0,*5D
1494216458.21,15954,14.75,72662.8,-4.43,-27.77,-23.49,0,*56
1494216459.45,15955,14.75,72664.0,-4.43,-27.83,-23.39,0,*5B
1494216460.7,15956,14.75,72658.3,-4.43,-27.77,-23.49,0,*54
1494216461.95,15957,14.75,72666.8,-4.43,-27.83,-23.39,0,*59
1494216463.22,15958,14.75,72668.5,-4.43,-27.83,-23.49,0,*51
1494216464.48,15959,14.75,72666.8,-4.43,-27.93,-23.49,0,*51
1494216465.7,15960,14.75,72670.0,-4.43,-27.93,-23.39,0,*5C
1494216466.93,15961,14.75,72672.0,-4.43,-27.77,-23.39,0,*57
1494216468.18,15962,14.75,72668.0,-4.43,-27.77,-23.49,0,*53
1494216469.4,15963,14.75,72670.8,-4.45,-27.89,-23.53,0,*5E
1494216470.67,15964,14.75,72666.5,-4.43,-27.83,-23.53,0,*55
1494216471.92,15965,14.75,72664.8,-4.43,-27.93,-23.53,0,*55
1494216473.15,15966,14.75,72666.8,-4.45,-27.99,-23.59,0,*50
1494216474.37,15967,14.75,72670.0,-4.45,-27.93,-23.53,0,*51
1494216475.62,15968,14.75,72674.5,-4.43,-27.93,-23.53,0,*58
1494216476.88,15969,14.75,72668.0,-4.43,-27.93,-23.49,0,*52
1494216478.12,15970,14.75,72666.0,-4.45,-27.83,-23.53,0,*56
1494216479.38,15971,14.75,72664.8,-4.43,-27.93,-23.49,0,*5B
1494216480.65,15972,14.75,72666.0,-4.43,-27.83,-23.49,0,*59
1494216481.86,15973,14.75,72664.0,-4.45,-27.71,-23.43,0,*59
1494216483.1,15974,14.75,72670.0,-4.43,-27.83,-23.39,0,*58
1494216484.33,15975,14.75,72674.3,-4.43,-27.77,-23.39,0,*52
1494216485.56,15976,14.75,72670.3,-4.45,-27.83,-23.43,0,*51
1494216486.76,15977,14.75,72674.3,-4.45,-27.71,-23.39,0,*50
1494216487.99,15978,14.75,72672.0,-4.45,-27.67,-23.29,0,*59
1494216489.28,15979,14.75,72668.3,-4.43,-27.61,-23.23,0,*52
1494216490.56,15980,14.75,72670.0,-4.43,-27.61,-23.33,0,*55
1494216491.78,15981,14.75,72668.0,-4.45,-27.51,-23.29,0,*5A
1494216493.06,15982,14.75,72668.8,-4.43,-27.45,-23.33,0,*51
1494216494.29,15983,14.75,72668.0,-4.45,-27.51,-23.29,0,*58
1494216495.54,15984,14.75,72668.8,-4.43,-27.13,-23.33,0,*54